Flag for Germany Weather past 2 weeks in Alfeld (Leine), Lower Saxony, Germany

Now
48 °F

Passing clouds.


Feels Like: 46 °F
Forecast: 44 / 75 °F
Wind: 5 mph from West

Location: Hannover

Current Time: Jul 31, 2015 at 5:59:11 AM

Latest Report: Jul 31, 2015 at 5:20 AM


Visibility: N/A

Pressure: 30.07 "Hg

Humidity: 94%

Dew point: 46 °F

Location of Alfeld (Leine)Location

Historic Weather in Alfeld (Leine) — Graph

°F

Alfeld (Leine) temperature yesterday

Maximum temperature yesterday: 66 °F (at 2:20 PM)
Minimum temperature yesterday: 52 °F (at 10:50 PM)
Average temperature yesterday: 59 °F

Past Weeks' High & Low Weather Summary

 TemperatureHumidityPressure
High90 °F (Jul 17, 3:50 PM)100% (Jul 16, 5:50 AM)30.09 "Hg (Jul 16, 5:50 AM)
Low50 °F (Jul 31, 3:20 AM)33% (Jul 17, 3:50 PM)29.47 "Hg (Jul 25, 12:50 PM)
Average65 °F75%29.84 "Hg
* Reported Jul 16 4:20 AM — Jul 31 4:20 AM, Alfeld (Leine), Weather by CustomWeather, © 2015

Note: Actual official high and low records may vary slightly from our data, if they occured in-between our weather recording intervals... More about our weather records

Advertising

Alfeld (Leine) weather history for previous 24 hours

 ConditionsComfort  
Time TempWeatherWind HumidityBarometerVisibility
4:20 AM
Fri, Jul 31
50 °FClear.8 mph88%30.07 "Hg10 mi
3:50 AM50 °FPassing clouds.8 mph94%30.04 "HgN/A
3:20 AM50 °FClear.7 mph94%30.04 "Hg10 mi
2:50 AM52 °FClear.8 mph88%30.04 "Hg10 mi
2:20 AM52 °FPassing clouds.8 mph88%30.04 "HgN/A
1:50 AM52 °FClear.7 mph88%30.04 "Hg10 mi
1:20 AM52 °FClear.9 mph88%30.04 "Hg10 mi
12:50 AM52 °FClear.8 mph88%30.04 "Hg10 mi
11:20 PM
Thu, Jul 30
54 °FClear.5 mph77%30.01 "Hg10 mi
10:50 PM52 °FPassing clouds.8 mph82%30.01 "HgN/A
10:20 PM54 °FPassing clouds.8 mph82%30.01 "HgN/A
9:50 PM55 °FScattered clouds.8 mph72%30.01 "HgN/A
9:20 PM57 °FScattered clouds.9 mph67%29.98 "HgN/A
8:50 PM59 °FScattered clouds.9 mph68%29.98 "HgN/A
8:20 PM61 °FScattered clouds.9 mph63%29.95 "HgN/A
7:50 PM63 °FScattered clouds.16 mph59%29.95 "HgN/A
7:20 PM63 °FScattered clouds.17 mph59%29.95 "HgN/A
6:50 PM63 °FScattered clouds.18 mph64%29.95 "HgN/A
6:20 PM64 °FScattered clouds.18 mph56%29.92 "HgN/A
5:50 PM64 °FScattered clouds.18 mph52%29.92 "HgN/A
5:20 PM64 °FScattered clouds.21 mph52%29.92 "HgN/A
4:50 PM64 °FScattered clouds.20 mph60%29.92 "HgN/A
4:20 PM64 °FScattered clouds.15 mph56%29.89 "HgN/A
3:50 PM64 °FScattered clouds.18 mph52%29.89 "HgN/A
3:20 PM66 °FPartly sunny.18 mph52%29.89 "HgN/A
2:50 PM66 °FPartly sunny.18 mph49%29.89 "HgN/A
2:20 PM66 °FPartly sunny.16 mph49%29.89 "HgN/A
1:50 PM64 °FPartly sunny.22 mph52%29.89 "HgN/A
1:20 PM64 °FPartly sunny.17 mph56%29.89 "HgN/A
12:50 PM64 °FPartly sunny.20 mph56%29.89 "HgN/A
12:20 PM63 °FPartly sunny.20 mph59%29.89 "HgN/A
11:50 AM61 °FPartly sunny.21 mph68%29.86 "HgN/A
11:20 AM63 °FPartly sunny.17 mph68%29.86 "HgN/A
10:20 AM59 °FPartly sunny.20 mph72%29.86 "HgN/A
9:50 AM59 °FPartly sunny.18 mph72%29.86 "HgN/A
9:20 AM59 °FPartly sunny.18 mph77%29.86 "HgN/A
8:50 AM57 °FPartly sunny.17 mph77%29.83 "HgN/A
8:20 AM57 °FPartly sunny.16 mph77%29.83 "HgN/A
7:50 AM55 °FPartly sunny.15 mph82%29.83 "HgN/A
7:20 AM55 °FPartly sunny.15 mph82%29.83 "HgN/A
6:50 AM54 °FPartly sunny.13 mph88%29.80 "HgN/A
6:20 AM54 °FPassing clouds.13 mph88%29.80 "HgN/A
5:50 AM54 °FPassing clouds.13 mph88%29.80 "HgN/A
5:20 AM54 °FPassing clouds.14 mph82%29.80 "HgN/A
Weather by CustomWeather, © 2015

See weather overviewHow to use our weather pages